• In Hungary
  • List of Countries
  • For 7 days
  • Water Temperature
  • Satellite Maps
  • Weather Map
  • News
  • Weather Widgets
  • user-avatar
    Login

    Hourly Weather Rozhdestvenskoe

    Today, 15 August, Wednesday

    Time Temperature Precipitation Wind Pressure Humidity
    00:00 +16°C° 0 mm 0 mps 749 mmHg 73%
    01:00 +16°C° 0 mm 0 mps 749 mmHg 74%
    02:00 +18°C° 0 mm 1 mps 749 mmHg 75%
    03:00 +16°C° 0 mm 1 mps 749 mmHg 76%
    04:00 +16°C° 0 mm 1 mps 749 mmHg 77%
    05:00 +18°C° 0 mm 1 mps 749 mmHg 77%
    06:00 +17°C° 0 mm 2 mps 749 mmHg 78%
    07:00 +19°C° 0 mm 2 mps 749 mmHg 72%
    08:00 +21°C° 0 mm 3 mps 749 mmHg 66%
    09:00 +24°C° 0 mm 3 mps 749 mmHg 59%
    10:00 +25°C° 0 mm 4 mps 749 mmHg 56%
    11:00 +26°C° 0 mm 4 mps 749 mmHg 52%
    12:00 +28°C° 0 mm 4 mps 749 mmHg 48%
    13:00 +28°C° 0 mm 4 mps 749 mmHg 47%
    14:00 +29°C° 0 mm 4 mps 749 mmHg 46%
    15:00 +29°C° 0 mm 4 mps 748 mmHg 47%
    16:00 +29°C° 0 mm 3 mps 748 mmHg 50%
    17:00 +28°C° 0 mm 3 mps 748 mmHg 54%
    18:00 +28°C° 0 mm 3 mps 748 mmHg 57%
    19:00 +26°C° 0 mm 3 mps 748 mmHg 59%
    20:00 +25°C° 0 mm 3 mps 748 mmHg 62%
    21:00 +22°C° 0 mm 4 mps 748 mmHg 65%
    22:00 +22°C° 0 mm 4 mps 748 mmHg 64%
    23:00 +22°C° 0 mm 4 mps 748 mmHg 63%

    Tomorrow, 16 August, Thursday

    Time Temperature Precipitation Wind Pressure Humidity
    00:00 +22°C° 0 mm 4 mps 748 mmHg 62%
    01:00 +21°C° 0 mm 4 mps 748 mmHg 61%
    02:00 +21°C° 0 mm 4 mps 748 mmHg 61%
    03:00 +21°C° 0 mm 4 mps 747 mmHg 61%
    04:00 +21°C° 0 mm 4 mps 747 mmHg 61%
    05:00 +21°C° 0 mm 4 mps 747 mmHg 62%
    06:00 +20°C° 0 mm 4 mps 747 mmHg 62%
    07:00 +22°C° 0 mm 4 mps 748 mmHg 60%
    08:00 +23°C° 0 mm 4 mps 748 mmHg 58%
    09:00 +25°C° 0 mm 4 mps 748 mmHg 56%
    10:00 +26°C° 0 mm 4 mps 748 mmHg 55%
    11:00 +26°C° 0 mm 4 mps 748 mmHg 54%
    12:00 +27°C° 0 mm 4 mps 748 mmHg 54%
    13:00 +28°C° 0 mm 4 mps 747 mmHg 52%
    14:00 +28°C° 0 mm 4 mps 747 mmHg 50%
    15:00 +29°C° 0 mm 4 mps 747 mmHg 48%
    16:00 +28°C° 0 mm 3 mps 747 mmHg 51%
    17:00 +28°C° 0 mm 3 mps 747 mmHg 54%
    18:00 +27°C° 0 mm 2 mps 747 mmHg 56%
    19:00 +26°C° 0.6 mm 2 mps 747 mmHg 62%
    20:00 +25°C° 0.6 mm 2 mps 747 mmHg 67%
    21:00 +23°C° 0.6 mm 2 mps 748 mmHg 73%
    22:00 +23°C° 0.2 mm 2 mps 748 mmHg 75%
    23:00 +22°C° 0.2 mm 1 mps 748 mmHg 78%

    Day after tomorrow, 17 August, Friday

    Time Temperature Precipitation Wind Pressure Humidity
    00:00 +22°C° 0.2 mm 1 mps 748 mmHg 81%
    01:00 +21°C° 0.8 mm 1 mps 748 mmHg 84%
    02:00 +21°C° 0.8 mm 1 mps 748 mmHg 86%
    03:00 +20°C° 0.8 mm 2 mps 748 mmHg 89%
    04:00 +19°C° 0.9 mm 2 mps 748 mmHg 91%
    05:00 +19°C° 0.9 mm 2 mps 748 mmHg 92%
    06:00 +19°C° 0.9 mm 2 mps 749 mmHg 94%
    07:00 +20°C° 0 mm 3 mps 749 mmHg 90%
    08:00 +21°C° 0 mm 3 mps 749 mmHg 86%
    09:00 +22°C° 0 mm 4 mps 749 mmHg 82%
    10:00 +23°C° 0.1 mm 4 mps 749 mmHg 77%
    11:00 +23°C° 0.1 mm 4 mps 749 mmHg 73%
    12:00 +25°C° 0.1 mm 5 mps 750 mmHg 69%
    13:00 +25°C° 0.4 mm 5 mps 749 mmHg 67%
    14:00 +25°C° 0.4 mm 5 mps 749 mmHg 65%
    15:00 +26°C° 0.4 mm 5 mps 749 mmHg 64%
    16:00 +25°C° 0.1 mm 4 mps 749 mmHg 65%
    17:00 +25°C° 0.1 mm 4 mps 749 mmHg 66%
    18:00 +23°C° 0.1 mm 4 mps 750 mmHg 68%
    19:00 +22°C° 0 mm 4 mps 750 mmHg 71%
    20:00 +20°C° 0 mm 4 mps 750 mmHg 75%
    21:00 +19°C° 0 mm 4 mps 750 mmHg 78%
    22:00 +18°C° 0 mm 4 mps 751 mmHg 79%
    23:00 +18°C° 0 mm 4 mps 751 mmHg 80%

    18 August, Saturday

    Time Temperature Precipitation Wind Pressure Humidity
    00:00 +17°C° 0 mm 4 mps 751 mmHg 81%
    01:00 +16°C° 0 mm 3 mps 751 mmHg 82%
    02:00 +16°C° 0 mm 3 mps 751 mmHg 84%
    03:00 +14°C° 0 mm 3 mps 751 mmHg 85%
    04:00 +14°C° 0 mm 3 mps 752 mmHg 85%
    05:00 +14°C° 0 mm 3 mps 752 mmHg 85%
    06:00 +14°C° 0 mm 3 mps 752 mmHg 85%
    07:00 +17°C° 0 mm 3 mps 752 mmHg 77%
    08:00 +18°C° 0 mm 4 mps 753 mmHg 69%
    09:00 +20°C° 0 mm 4 mps 753 mmHg 62%
    10:00 +21°C° 0 mm 4 mps 753 mmHg 58%
    11:00 +22°C° 0 mm 4 mps 753 mmHg 54%
    12:00 +23°C° 0 mm 4 mps 753 mmHg 50%
    13:00 +23°C° 0 mm 4 mps 753 mmHg 49%
    14:00 +23°C° 0 mm 4 mps 752 mmHg 48%
    15:00 +23°C° 0 mm 4 mps 752 mmHg 47%
    16:00 +22°C° 0 mm 4 mps 752 mmHg 51%
    17:00 +22°C° 0 mm 3 mps 752 mmHg 54%
    18:00 +21°C° 0 mm 3 mps 752 mmHg 58%
    19:00 +20°C° 0 mm 3 mps 752 mmHg 62%
    20:00 +18°C° 0 mm 3 mps 753 mmHg 66%
    21:00 +16°C° 0 mm 3 mps 753 mmHg 70%
    22:00 +16°C° 0 mm 2 mps 753 mmHg 71%
    23:00 +15°C° 0 mm 2 mps 753 mmHg 73%

    19 August, Sunday

    Time Temperature Precipitation Wind Pressure Humidity
    00:00 +15°C° 0 mm 2 mps 753 mmHg 75%
    01:00 +14°C° 0 mm 2 mps 753 mmHg 77%
    02:00 +14°C° 0 mm 2 mps 753 mmHg 79%
    03:00 +13°C° 0 mm 2 mps 753 mmHg 81%
    04:00 +13°C° 0 mm 2 mps 753 mmHg 82%
    05:00 +13°C° 0 mm 2 mps 754 mmHg 82%
    06:00 +13°C° 0 mm 1 mps 754 mmHg 83%
    07:00 +15°C° 0 mm 2 mps 754 mmHg 75%
    08:00 +17°C° 0 mm 2 mps 754 mmHg 68%
    09:00 +19°C° 0 mm 2 mps 754 mmHg 60%
    10:00 +20°C° 0 mm 2 mps 754 mmHg 55%
    11:00 +21°C° 0 mm 2 mps 753 mmHg 51%
    12:00 +23°C° 0 mm 2 mps 753 mmHg 46%
    13:00 +23°C° 0 mm 2 mps 753 mmHg 45%
    14:00 +24°C° 0 mm 2 mps 753 mmHg 43%
    15:00 +24°C° 0 mm 2 mps 752 mmHg 41%
    16:00 +24°C° 0 mm 2 mps 752 mmHg 45%
    17:00 +23°C° 0 mm 2 mps 752 mmHg 48%
    18:00 +23°C° 0 mm 2 mps 752 mmHg 52%
    19:00 +21°C° 0 mm 1 mps 752 mmHg 55%
    20:00 +19°C° 0 mm 1 mps 752 mmHg 58%
    21:00 +18°C° 0 mm 1 mps 752 mmHg 61%
    22:00 +16°C° 0 mm 2 mps 751 mmHg 63%
    23:00 +16°C° 0 mm 2 mps 751 mmHg 64%

    20 August, Monday

    Time Temperature Precipitation Wind Pressure Humidity
    00:00 +15°C° 0 mm 2 mps 751 mmHg 65%
    01:00 +15°C° 0 mm 2 mps 751 mmHg 67%
    02:00 +14°C° 0 mm 2 mps 751 mmHg 68%
    03:00 +14°C° 0 mm 2 mps 751 mmHg 70%
    04:00 +14°C° 0 mm 2 mps 751 mmHg 71%
    05:00 +14°C° 0 mm 2 mps 751 mmHg 73%
    06:00 +13°C° 0 mm 2 mps 751 mmHg 74%
    07:00 +15°C° 0 mm 2 mps 751 mmHg 68%
    08:00 +17°C° 0 mm 2 mps 751 mmHg 63%
    09:00 +19°C° 0 mm 2 mps 751 mmHg 57%
    10:00 +21°C° 0 mm 2 mps 751 mmHg 52%
    11:00 +23°C° 0 mm 2 mps 751 mmHg 48%
    12:00 +24°C° 0 mm 3 mps 751 mmHg 43%
    13:00 +25°C° 0 mm 3 mps 751 mmHg 42%
    14:00 +25°C° 0 mm 3 mps 750 mmHg 40%
    15:00 +26°C° 0 mm 3 mps 750 mmHg 39%
    16:00 +25°C° 0 mm 2 mps 750 mmHg 42%
    17:00 +25°C° 0 mm 2 mps 750 mmHg 46%
    18:00 +24°C° 0 mm 2 mps 749 mmHg 50%
    19:00 +23°C° 0 mm 2 mps 749 mmHg 52%
    20:00 +20°C° 0 mm 2 mps 750 mmHg 54%
    21:00 +18°C° 0 mm 2 mps 750 mmHg 57%
    22:00 +18°C° 0 mm 2 mps 749 mmHg 58%
    23:00 +17°C° 0 mm 2 mps 749 mmHg 59%
    Show more